Regional Weather Roundup
Issued by NWS Wakefield, VA

Home | Current Version | Previous Version | Text Only | Print | Product List | Glossary Off
Versions: 1 2 3 4 5 6 7 8 9 10 11 12 13 14 15 16 17 18 19 20 21 22 23 24 25 26 27 28 29 30 31 32 33 34 35 36 37 38 39 40 41 42 43 44 45 46 47 48 49 50

000
ASUS41 KAKQ 191610
RWRAKQ

REGIONAL WEATHER ROUNDUP
NATIONAL WEATHER SERVICE WAKEFIELD VA
1100 AM EST FRI DEC 19 2014

Note: "fair" indicates few or no clouds below 12,000 feet with no
significant weather and/or obstructions to visibility. * = Denotes
station may not report precipitation (e.g., rain,snow,etc.),
thunder or fog.

VAZ042-051-052>054-056-191700-
NORTHERN VIRGINIA

CITY           SKY/WX    TMP DP  RH WIND       PRES   REMARKS
WASH NATIONAL  CLOUDY    39  23  52 NW14G22   30.19S
DULLES         CLOUDY    35  23  61 NW13      30.18S
FORT BELVOIR   CLOUDY    37  23  55 NW14G22   30.20R
QUANTICO       PTSUNNY   38  22  52 N9G25     30.21S
FREDERICKSBRG* SUNNY     40  25  53 N10G18    30.19F
STAFFORD*      CLOUDY    38  23  53 NW12      30.24S
WARRENTON      PTSUNNY   40  29  65 NW13G21   30.18F
CULPEPER*      MOSUNNY   37  25  60 N7        30.19F
MANASSAS*      CLOUDY    37  25  60 NW10      30.19
LEESBURG*      CLOUDY    36  28  75 NW12      30.18S
WINCHESTER     CLOUDY    36  19  51 W16G23    30.16F
FRONT ROYAL*   CLOUDY    34  23  64 W9        30.18S
LURAY*         CLOUDY    36  27  69 CALM      30.18S
$$

VAZ048-049-060>072-079>083-191700-
CENTRAL AND SOUTH CENTRAL VIRGINIA

CITY           SKY/WX    TMP DP  RH WIND       PRES   REMARKS
RICHMOND       SUNNY     41  23  48 NE7       30.18F
CHESTERFIELD*  SUNNY     41  18  38 NE3       30.19F
PETERSBURG*    SUNNY     41  25  53 N3        30.19F
HANOVER        SUNNY     40  24  53 VRB3      30.20F
TAPPAHANNOCK*  SUNNY     40  20  44 N13G20    30.19F
QUINTON*       SUNNY     39  25  58 NW7       30.19F
CHARLOTTSVILLE SUNNY     40  24  53 NE3       30.17S
GORDONSVILLE*  SUNNY     37  24  58 S5        30.17F
ORANGE*        SUNNY     37  27  65 CALM      30.19F
LOUISA*        SUNNY     39  25  56 NW3       30.16F
BUMPASS*       SUNNY     38  25  58 NW6       30.18F
FARMVILLE*     SUNNY     46  30  54 CALM      30.17F
CREWE*         SUNNY     39  23  52 CALM      30.17F
FORT PICKETT*  SUNNY     39  25  56 CALM      30.17F
CHASE CITY*    SUNNY     43  27  54 NW5       30.17S
CLARKSVILLE*   SUNNY     41  28  60 NW3       30.17F
SOUTH HILL*    SUNNY     38  25  58 CALM      30.23F
LAWRENCEVILLE* SUNNY     39  26  58 CALM      30.18S
EMPORIA*       SUNNY     39  27  60 CALM      30.20S
$$

VAZ088>098-191700-
SOUTHEAST VIRGINIA

CITY           SKY/WX    TMP DP  RH WIND       PRES   REMARKS
NORFOLK        SUNNY     41  26  55 N10       30.17F
VIRGINIA BEACH MOSUNNY   43  28  55 N14       30.16F
NORFOLK NAVAL  SUNNY     44  26  49 N14       30.18F
WEST POINT*    SUNNY     43  22  43 N8        30.21S
SALUDA*        FAIR      39  25  57 N12       30.18S
NEWPORT NEWS   SUNNY     45  27  49 N8        30.17F
LANGLEY AFB    SUNNY     37  28  70 N6        30.11S
FORT EUSTIS    SUNNY     41  25  52 VRB7      30.16F
WILLIAMSBURG*  SUNNY     46  28  49 N9        30.18F
HR EXEC AP*    SUNNY     41  27  56 NE7       30.19F
FRANKLIN*      SUNNY     41  25  52 N5        30.19F
WAKEFIELD      SUNNY     41  25  53 NE6       30.18F
$$

VAZ020-022-025-037-045-191700-
WEST CENTRAL AND SOUTHWEST VIRGINIA

CITY           SKY/WX    TMP DP  RH WIND       PRES   REMARKS
STAUNTON*      SUNNY     36  24  62 NE7       30.17F
WAYNESBORO*    SUNNY     34  24  65 N7        30.14S
HOT SPRINGS VA SUNNY     26  20  80 W15       30.02F WCI  14
LYNCHBURG      SUNNY     41  23  48 VRB3      30.17F
DANVILLE       SUNNY     45  24  43 N7        30.18F
SOUTH BOSTON*  SUNNY     42  22  44 CALM      30.18F
MARTINSVILLE   SUNNY     46  23  40 N7        30.19S
ROANOKE        SUNNY     41  22  46 NW12      30.19F
BLACKSBURG     SUNNY     32  22  65 W15       30.18F WCI  22
DUBLIN*        SUNNY     37  25  62 CALM      30.17F
MARION*        SUNNY     37  20  50 NW5       30.17F
HILLSVILLE*    SUNNY     35  20  52 NW9       30.13F
RICHLANDS*     SUNNY     32  21  63 NW5       30.16F
WISE*          MOSUNNY   34  27  75 CALM      30.17S
ABINGDON*      CLOUDY    39  24  53 W3        30.18S
$$

MDZ021>025-VAZ099-100-191700-
SOUTHERN MARYLAND AND THE DELMARVA PENINSULA

CITY           SKY/WX    TMP DP  RH WIND       PRES   REMARKS
PATUXENT RIVER PTSUNNY   37  23  56 NW15      30.18S
BAY BRIDGE APT   N/A     36  25  64 NW10G16   30.16F
LEONARDTOWN    CLOUDY    36  23  60 NW8       30.19S
DOVER          CLOUDY    38  26  61 W13       30.10S
GEORGETOWN     CLOUDY    38  25  59 VRB7      30.14S
EASTON         CLOUDY    37  28  70 NW10      30.19S
CAMBRIDGE      CLOUDY    37  27  65 NW12G17   30.16S
SALISBURY      CLOUDY    39  26  59 NW9       30.15S
OCEAN CITY     CLOUDY    39  26  59 NW14G20   30.14S
WALLOPS ISLAND PTSUNNY   39  26  59 N10       30.15F
ACCOMACK*      SUNNY     39  27  60 NW15G23   30.15F
$$

NCZ012>017-030>032-191700-
NORTH CENTRAL AND EASTERN NORTH CAROLINA

CITY           SKY/WX    TMP DP  RH WIND       PRES   REMARKS
ROANOKE RAPIDS SUNNY     41  27  56 E3        30.19F
RALEIGH        MOSUNNY   47  22  37 N8        30.18F
ELIZABETH CITY SUNNY     47  30  51 N6        30.18F
AHOSKIE*       SUNNY     40  26  57 CALM      30.19F
EDENTON*         N/A     43  30  60 N3        30.18S
CURRITUCK*     SUNNY     43  28  56 N7        30.18S
KILL DEVIL HLS SUNNY     44  33  64 NW7       30.15S
MANTEO         SUNNY     44  32  63 N7        30.17R
CAPE HATTERAS  SUNNY     48  37  65 VRB7      30.15S
TARBORO*       SUNNY     43  30  61 N7        30.19F
GOLDSBORO      SUNNY     47  30  51 N7        30.17F
WASHINGTON     SUNNY     44  32  63 N3        30.17F
GREENVILLE     SUNNY     43  32  65 NW3       30.19F
NEW BERN       SUNNY     50  29  44 N7        30.18F
WILMINGTON     SUNNY     54  26  34 NW5       30.17F
$$

VAZ048-191700-
ELSEWHERE

CITY           SKY/WX    TMP DP  RH WIND       PRES   REMARKS
HARRISBURG PA  CLOUDY    37  22  54 NW16G23   30.11F
BALTIMORE      CLOUDY    37  23  56 NW10G21   30.15S
ANNAPOLIS      CLOUDY    38  25  59 NW9       30.16S
ANDREWS AFB    CLOUDY    36  24  59 NW10G21   30.16S
PHILADELPHIA   CLOUDY    40  24  53 NW13      30.10F
HENDERSON NC   SUNNY     41  24  49 NW3       30.18F
GREENSBORO     MOSUNNY   47  17  30 NW9       30.15F
ROCKY MOUNT    SUNNY     43  28  55 NW7       30.19F
$$

VAZ100-191700-
MARINE

STATION/POSITION TIME  TEMP    WIND        PRES    WAVE   SWELL
                       AIR SEA DIR/SP/G            HT/PER HT/PER
                 (UTC) (F)     (DEG/KT/KT) (MB)    (FT/S) (FT/S)
CAPE MAY NJ      1600   38 41  320/  9/ 21 1019.2S
LEWES DE         1600   38 42  310/ 18/ 21 1019.9S
15NM E FENWICK I 1600   38 47              1019.4R   3/ 5
OCEAN-CITY-INLET 1600   38 45  330/ 14/ 18 1020.0F
WACHAPREAGUE VA  1600   39 42  310/  9/ 14 1021.1F
THOMAS POINT MD  1600   36 41  300/ 14/ 17 1022.4F
GOOSES REEF MD   1600   37     VRB 14/ 17  1020.9S
COVE POINT MD    1600   35     340/ 16/ 19 1021.6F
SOLOMONS ISLAND  1600      44                N/A
BISHOPS HEAD MD  1600   37 39  320/ 12/ 18 1021.3F
PINEY POINT MD   1600          350/ 15/ 18   N/A
POTOMAC MD       1600   38     330/ 14/ 17 1021.3F
CAMBRIDGE MD     1600   37 40  300/ 12/ 15 1021.2F
LEWISETTA VA     1600   38 42  340/ 12/ 17 1021.8F
RAPPAHANNOCK LGT 1600          330/ 19/ 21 1021.9F
STINGRAY PT      1600   39     350/ 12/ 16 1022.2F
YORK RVR RNG VA  1600   39     350/ 13/ 14 1021.3S
YORKTOWN VA      1600   39 45  320/ 10/ 12 1021.8F
JAMESTOWN VA     1600   38      20/  6/ 10   N/A
DOMINION TERM VA 1600   41      60/  3/  6 1021.8F
KIPTOPEKE VA     1600      49  350/ 15/ 22   N/A
CHES BAY BRIDGE  1600   39 46  310/ 10/ 12 1021.6F
CAPE HENRY VA    1600   38     330/ 14/ 17 1020.3F
CHESAPEAKE LGHT  1500   39     340/ 14/ 17 1022.2R
WILLOUBY STN VA  1600   38     350/ 11/ 12 1022.0F
S CRANEY ISL VA  1600           10/  8/ 10 1021.5F
CAPE HENRY BUOY  1600      48                N/A     3/ 4
1ST LANDING BUOY 1600   40     340/ 14/ 16 1021.8R
CAPE CHARLES BUO 1600      48                N/A     2/ 4   2/12
64NM E OF VA BCH 1600   43 55  330/ 14/ 17 1020.4R   3/ 5   2/11
DUCK PIER NC     1600   41 47  350/ 10/ 12 1020.6R
44100 DUCK FRF   1600      51                N/A     3/ 5
44056 DUCK FRF   1600      48                N/A     3/ 5
OREGON INLET NC  1600   45 50  340/  9/ 13 1021.4R
HATTERAS NC      1600   45 53  340/ 10/ 12 1021.3F
CAPE LOOKOUT NC  1500   47     330/  9/ 10 1021.6R
$$


USA.gov is the U.S. government's official web portal to all federal, state and local government web resources and services.